Location: McFarlands Corners
(41.4117°N, 81.3382°W)
Time: 12:57:27
(UTC+00:00)

Transit 4A - Pass Details

Date: 19 February 2026
Orbit: 863 x 978 km, 66.8° (Epoch: 17 March)

Event Time Altitude Azimuth Distance (km) Brightness Sun altitude
Rises 11:00:47 0° 271° (W) 3,480 - -14.5°
Reaches altitude 10° 11:04:46 10° 298° (WNW) 2,567 - -13.8°
Exits shadow 11:05:53 12° 309° (NW) 2,424 9.6 -13.6°
Maximum altitude 11:07:34 13° 326° (NNW) 2,348 9.7 -13.3°
Drops below altitude 10° 11:10:25 10° 355° (N) 2,608 10.2 -12.7°
Sets 11:14:33 0° 21° (NNE) 3,583 11.2 -12.0°
